When you browse on this site, cookies collect data to enhance your experience and personalize the content and advertising you see.
Visit our Privacy Policy to learn more. By continuing to use the site, you agree to this use of cookies and data.
  • In United Kingdom
  • List of Countries
  • For 7 days
  • Water Temperature
  • Weather Map
  • Weather Widgets
  • user-avatar
    Login

    Hourly Weather Gemerek

    Today, 21 October, Monday

    Time Temperature Precipitation Wind Pressure Humidity
    00:00 +13°C° 0 mm 1 mps 659 mmHg 78%
    01:00 +12°C° 0 mm 1 mps 658 mmHg 80%
    02:00 +12°C° 0 mm 1 mps 658 mmHg 82%
    03:00 +12°C° 0 mm 1 mps 658 mmHg 85%
    04:00 +11°C° 0 mm 1 mps 658 mmHg 87%
    05:00 +11°C° 0 mm 1 mps 658 mmHg 90%
    06:00 +12°C° 0 mm 1 mps 658 mmHg 85%
    07:00 +12°C° 0 mm 1 mps 659 mmHg 81%
    08:00 +13°C° 0 mm 2 mps 659 mmHg 77%
    09:00 +15°C° 0 mm 2 mps 659 mmHg 70%
    10:00 +16°C° 0 mm 2 mps 659 mmHg 63%
    11:00 +17°C° 0 mm 2 mps 660 mmHg 56%
    12:00 +18°C° 0 mm 2 mps 659 mmHg 53%
    13:00 +19°C° 0 mm 2 mps 659 mmHg 50%
    14:00 +19°C° 0 mm 3 mps 659 mmHg 47%
    15:00 +18°C° 0.1 mm 3 mps 659 mmHg 53%
    16:00 +17°C° 0.1 mm 3 mps 658 mmHg 59%
    17:00 +15°C° 0.1 mm 4 mps 658 mmHg 66%
    18:00 +14°C° 0.1 mm 3 mps 658 mmHg 70%
    19:00 +14°C° 0.1 mm 2 mps 658 mmHg 74%
    20:00 +13°C° 0.1 mm 2 mps 658 mmHg 78%
    21:00 +13°C° 0 mm 2 mps 657 mmHg 81%
    22:00 +12°C° 0 mm 2 mps 657 mmHg 83%
    23:00 +12°C° 0 mm 2 mps 657 mmHg 85%

    Tomorrow, 22 October, Tuesday

    Time Temperature Precipitation Wind Pressure Humidity
    00:00 +12°C° 0 mm 2 mps 657 mmHg 86%
    01:00 +10°C° 0 mm 2 mps 657 mmHg 88%
    02:00 +10°C° 0 mm 2 mps 657 mmHg 89%
    03:00 +10°C° 0 mm 2 mps 657 mmHg 90%
    04:00 +10°C° 0 mm 2 mps 657 mmHg 91%
    05:00 +9°C° 0 mm 2 mps 657 mmHg 91%
    06:00 +10°C° 0 mm 2 mps 657 mmHg 86%
    07:00 +12°C° 0 mm 2 mps 658 mmHg 81%
    08:00 +12°C° 0 mm 3 mps 658 mmHg 76%
    09:00 +14°C° 0 mm 3 mps 658 mmHg 67%
    10:00 +17°C° 0 mm 3 mps 659 mmHg 58%
    11:00 +19°C° 0 mm 4 mps 659 mmHg 49%
    12:00 +19°C° 0 mm 4 mps 659 mmHg 46%
    13:00 +20°C° 0 mm 4 mps 659 mmHg 43%
    14:00 +21°C° 0 mm 5 mps 658 mmHg 39%
    15:00 +19°C° 0.1 mm 4 mps 658 mmHg 44%
    16:00 +18°C° 0.1 mm 4 mps 658 mmHg 49%
    17:00 +17°C° 0.1 mm 3 mps 658 mmHg 54%
    18:00 +16°C° 0.2 mm 3 mps 658 mmHg 60%
    19:00 +14°C° 0.2 mm 3 mps 658 mmHg 66%
    20:00 +14°C° 0.2 mm 2 mps 658 mmHg 72%
    21:00 +14°C° 0.1 mm 2 mps 658 mmHg 76%
    22:00 +13°C° 0.1 mm 2 mps 658 mmHg 79%
    23:00 +13°C° 0.1 mm 2 mps 657 mmHg 83%

    Day after tomorrow, 23 October, Wednesday

    Time Temperature Precipitation Wind Pressure Humidity
    00:00 +12°C° 0 mm 2 mps 657 mmHg 86%
    01:00 +12°C° 0 mm 2 mps 657 mmHg 88%
    02:00 +10°C° 0 mm 2 mps 657 mmHg 90%
    03:00 +10°C° 0 mm 2 mps 657 mmHg 91%
    04:00 +9°C° 0 mm 2 mps 657 mmHg 91%
    05:00 +9°C° 0 mm 2 mps 656 mmHg 92%
    06:00 +10°C° 0 mm 2 mps 657 mmHg 86%
    07:00 +12°C° 0 mm 2 mps 657 mmHg 81%
    08:00 +13°C° 0 mm 2 mps 658 mmHg 75%
    09:00 +15°C° 0 mm 2 mps 658 mmHg 68%
    10:00 +16°C° 0 mm 2 mps 658 mmHg 60%
    11:00 +18°C° 0 mm 2 mps 658 mmHg 52%
    12:00 +18°C° 0.1 mm 2 mps 658 mmHg 49%
    13:00 +19°C° 0.1 mm 2 mps 658 mmHg 45%
    14:00 +20°C° 0.1 mm 2 mps 657 mmHg 42%
    15:00 +19°C° 0.2 mm 2 mps 657 mmHg 47%
    16:00 +18°C° 0.2 mm 2 mps 657 mmHg 52%
    17:00 +16°C° 0.2 mm 2 mps 656 mmHg 57%
    18:00 +15°C° 0.4 mm 2 mps 656 mmHg 63%
    19:00 +14°C° 0.4 mm 1 mps 656 mmHg 69%
    20:00 +13°C° 0.4 mm 1 mps 657 mmHg 75%
    21:00 +13°C° 0 mm 1 mps 656 mmHg 76%
    22:00 +13°C° 0 mm 1 mps 656 mmHg 78%
    23:00 +12°C° 0 mm 1 mps 656 mmHg 79%

    24 October, Thursday

    Time Temperature Precipitation Wind Pressure Humidity
    00:00 +12°C° 0 mm 1 mps 656 mmHg 81%
    01:00 +11°C° 0 mm 1 mps 656 mmHg 83%
    02:00 +11°C° 0 mm 1 mps 655 mmHg 86%
    03:00 +11°C° 0 mm 1 mps 655 mmHg 87%
    04:00 +11°C° 0 mm 1 mps 655 mmHg 88%
    05:00 +10°C° 0 mm 1 mps 655 mmHg 89%
    06:00 +11°C° 0 mm 1 mps 656 mmHg 84%
    07:00 +12°C° 0 mm 2 mps 656 mmHg 79%
    08:00 +13°C° 0 mm 2 mps 657 mmHg 73%
    09:00 +15°C° 0.2 mm 2 mps 657 mmHg 68%
    10:00 +16°C° 0.2 mm 3 mps 657 mmHg 62%
    11:00 +17°C° 0.2 mm 3 mps 657 mmHg 56%
    12:00 +17°C° 0.5 mm 3 mps 657 mmHg 54%
    13:00 +17°C° 0.5 mm 3 mps 656 mmHg 53%
    14:00 +17°C° 0.5 mm 3 mps 656 mmHg 52%
    15:00 +16°C° 0.1 mm 3 mps 656 mmHg 57%
    16:00 +14°C° 0.1 mm 3 mps 655 mmHg 62%
    17:00 +14°C° 0.1 mm 3 mps 655 mmHg 68%
    18:00 +14°C° 0 mm 2 mps 655 mmHg 70%
    19:00 +14°C° 0 mm 2 mps 655 mmHg 72%
    20:00 +13°C° 0 mm 1 mps 655 mmHg 75%
    21:00 +13°C° 0 mm 1 mps 655 mmHg 76%
    22:00 +12°C° 0 mm 1 mps 655 mmHg 78%
    23:00 +12°C° 0 mm 1 mps 655 mmHg 79%

    25 October, Friday

    Time Temperature Precipitation Wind Pressure Humidity
    00:00 +12°C° 0 mm 1 mps 655 mmHg 81%
    01:00 +11°C° 0 mm 1 mps 655 mmHg 82%
    02:00 +11°C° 0 mm 1 mps 655 mmHg 83%
    03:00 +11°C° 0 mm 1 mps 655 mmHg 84%
    04:00 +10°C° 0 mm 2 mps 655 mmHg 85%
    05:00 +10°C° 0 mm 2 mps 655 mmHg 85%
    06:00 +12°C° 0 mm 2 mps 655 mmHg 81%
    07:00 +13°C° 0 mm 2 mps 656 mmHg 76%
    08:00 +14°C° 0 mm 2 mps 656 mmHg 71%
    09:00 +15°C° 0 mm 2 mps 656 mmHg 65%
    10:00 +16°C° 0 mm 2 mps 656 mmHg 58%
    11:00 +18°C° 0 mm 2 mps 657 mmHg 51%
    12:00 +18°C° 0.1 mm 2 mps 656 mmHg 49%
    13:00 +19°C° 0.1 mm 1 mps 656 mmHg 46%
    14:00 +20°C° 0.1 mm 1 mps 656 mmHg 44%
    15:00 +19°C° 0.3 mm 1 mps 656 mmHg 48%
    16:00 +18°C° 0.3 mm 1 mps 656 mmHg 52%
    17:00 +18°C° 0.3 mm 1 mps 656 mmHg 56%
    18:00 +16°C° 0.1 mm 1 mps 656 mmHg 59%
    19:00 +15°C° 0.1 mm 1 mps 656 mmHg 62%
    20:00 +15°C° 0.1 mm 1 mps 656 mmHg 65%
    21:00 +14°C° 0 mm 1 mps 656 mmHg 67%
    22:00 +13°C° 0 mm 1 mps 656 mmHg 70%
    23:00 +13°C° 0 mm 1 mps 656 mmHg 72%

    26 October, Saturday

    Time Temperature Precipitation Wind Pressure Humidity
    00:00 +12°C° 0 mm 1 mps 655 mmHg 75%
    01:00 +11°C° 0 mm 0 mps 655 mmHg 77%
    02:00 +10°C° 0 mm 0 mps 655 mmHg 80%
    03:00 +10°C° 0 mm 0 mps 655 mmHg 82%
    04:00 +10°C° 0 mm 0 mps 655 mmHg 84%
    05:00 +9°C° 0 mm 0 mps 655 mmHg 85%
    06:00 +11°C° 0 mm 0 mps 656 mmHg 79%
    07:00 +12°C° 0 mm 0 mps 657 mmHg 73%
    08:00 +13°C° 0 mm 0 mps 657 mmHg 67%
    09:00 +14°C° 0 mm 0 mps 658 mmHg 62%
    10:00 +15°C° 0 mm 0 mps 658 mmHg 57%
    11:00 +19°C° 0 mm 1 mps 658 mmHg 52%
    12:00 +19°C° 0.6 mm 1 mps 658 mmHg 50%
    13:00 +19°C° 0.6 mm 1 mps 658 mmHg 49%
    14:00 +20°C° 0.6 mm 1 mps 657 mmHg 47%
    15:00 +19°C° 0.6 mm 1 mps 657 mmHg 51%
    16:00 +18°C° 0.6 mm 1 mps 657 mmHg 55%
    17:00 +16°C° 0.6 mm 2 mps 657 mmHg 60%
    18:00 +16°C° 0.3 mm 1 mps 657 mmHg 63%
    19:00 +15°C° 0.3 mm 1 mps 657 mmHg 66%
    20:00 +15°C° 0.3 mm 1 mps 657 mmHg 68%
    21:00 +14°C° 0.2 mm 1 mps 657 mmHg 71%
    22:00 +14°C° 0.2 mm 1 mps 657 mmHg 73%
    23:00 +13°C° 0.2 mm 1 mps 657 mmHg 75%
    Show more